Location: Franzen
(48.6167°N, 15.3833°E)
Time: 09:41:04
(UTC+00:00)

Cosmos 1953 Rocket - Pass Details

Date: 22 April 2021
Orbit: 603 x 636 km, 82.5° (Epoch: 16 May)

Event Time Altitude Azimuth Distance (km) Brightness Sun altitude
Rises 18:27:49 0° 346° (NNW) 2,888 7.6 -5.0°
Reaches altitude 10° 18:30:06 10° 341° (NNW) 1,974 6.9 -5.4°
Maximum altitude 18:34:20 52° 266° (W) 759 4.5 -6.0°
Drops below altitude 10° 18:38:30 10° 190° (S) 1,947 5.9 -6.6°
Sets 18:40:44 0° 185° (S) 2,844 6.7 -6.9°
